Location: Unspecified
(0.0000°N, 0.0000°E)
Time: 22:29:14
(UTC+00:00)

Vanguard 1 - All Passes

Search period start: 01 October 2020 00:00
Search period end: 11 October 2020 00:00
Orbit: 650 x 3832 km, 34.2° (Epoch: 01 October)

Date Brightness Start Highest point End Pass type
(mag) Time Alt. Az. Time Alt. Az. Time Alt. Az.
01 Oct - 04:12:50 10° NW 04:19:15 67° NE 04:31:11 10° ESE visible
01 Oct - 06:33:29 10° W 06:42:24 38° SSW 06:57:50 10° SE daylight
01 Oct - 09:00:25 10° SW 09:11:30 20° S 09:25:59 10° SSE daylight
01 Oct - 11:30:37 10° SSW 11:46:16 22° SSE 12:01:46 10° SE daylight
01 Oct - 13:57:28 10° SW 14:18:40 41° SSE 14:33:29 10° E daylight
01 Oct - 16:24:48 10° SW 16:45:20 88° NW 16:56:25 10° NE daylight
01 Oct - 18:57:08 10° W 19:07:23 24° NW 19:14:05 10° N visible
02 Oct - 02:17:12 10° NNE 02:20:04 14° NE 02:23:33 10° ENE visible
02 Oct - 04:33:30 10° NW 04:40:10 84° SW 04:52:51 10° SE visible
02 Oct - 06:55:30 10° WSW 07:04:29 30° SSW 07:18:57 10° SSE daylight
02 Oct - 09:23:51 10° SW 09:34:59 18° S 09:48:46 10° SE daylight
02 Oct - 11:52:34 10° SSW 12:09:50 25° SSE 12:26:01 10° ESE daylight
02 Oct - 14:18:41 10° SW 14:40:52 51° SSE 14:55:32 10° ENE daylight
02 Oct - 16:46:46 10° WSW 17:06:27 69° NW 17:17:06 10° NE daylight
02 Oct - 19:21:45 10° WNW 19:28:21 16° NW 19:33:19 10° N visible
03 Oct - 02:36:22 10° NNW 02:40:45 24° NE 02:47:00 10° E visible
03 Oct - 04:54:29 10° WNW 05:01:21 59° SSW 05:14:11 10° SE visible
03 Oct - 07:17:58 10° WSW 07:26:52 24° SSW 07:40:08 10° SSE daylight
03 Oct - 09:47:02 10° SW 09:58:43 18° S 10:12:30 10° SE daylight
03 Oct - 12:14:04 10° SSW 12:33:02 30° SSE 12:49:50 10° ESE daylight
03 Oct - 14:39:57 10° SW 15:02:47 63° SE 15:17:10 10° ENE daylight
03 Oct - 17:09:09 10° WSW 17:27:23 52° NW 17:37:35 10° NNE daylight
04 Oct - 02:56:21 10° NNW 03:01:22 41° NE 03:09:25 10° ESE visible
04 Oct - 05:15:47 10° W 05:22:48 42° SSW 05:35:17 10° SE visible
04 Oct - 07:40:54 10° SW 07:49:32 19° S 08:01:34 10° SSE daylight
04 Oct - 10:09:40 10° SSW 10:22:30 19° S 10:37:05 10° SE daylight
04 Oct - 12:35:19 10° SSW 12:55:51 36° SSE 13:13:03 10° E daylight
04 Oct - 15:01:22 10° SW 15:24:26 78° SE 15:38:26 10° ENE daylight
04 Oct - 17:32:06 10° WSW 17:48:16 39° NW 17:57:51 10° NNE daylight
05 Oct - 03:16:43 10° NW 03:22:04 69° NE 03:31:16 10° ESE visible
05 Oct - 05:37:29 10° W 05:44:32 31° SSW 05:56:13 10° SSE daylight
05 Oct - 08:04:09 10° SW 08:12:33 17° S 08:23:33 10° SSE daylight
05 Oct - 10:31:40 10° SSW 10:46:09 21° SSE 11:02:01 10° ESE daylight
05 Oct - 12:56:26 10° SW 13:18:19 44° SSE 13:35:42 10° E daylight
05 Oct - 15:23:00 10° SW 15:45:51 86° NW 15:59:26 10° NE daylight
05 Oct - 17:55:44 10° W 18:09:15 28° NW 18:17:51 10° NNE visible
06 Oct - 01:21:25 10° NNE 01:23:05 11° NE 01:24:52 10° ENE night (unlit)
06 Oct - 03:37:26 10° WNW 03:42:57 76° SW 03:52:42 10° SE visible
06 Oct - 05:59:39 10° WSW 06:06:32 23° SSW 06:17:02 10° SSE daylight
06 Oct - 08:27:23 10° SSW 08:35:51 16° S 08:46:28 10° SSE daylight
06 Oct - 10:53:09 10° SSW 11:09:31 25° SSE 11:26:43 10° ESE daylight
06 Oct - 13:17:32 10° SW 13:40:30 54° SSE 13:57:50 10° ENE daylight
06 Oct - 15:44:58 10° WSW 16:07:06 69° NW 16:20:11 10° NE daylight
06 Oct - 18:20:16 10° W 18:30:23 20° NW 18:37:30 10° N visible
07 Oct - 01:40:12 10° N 01:43:51 22° NE 01:48:28 10° E visible
07 Oct - 03:58:30 10° WNW 04:04:06 49° SSW 04:13:47 10° SE visible
07 Oct - 06:22:20 10° SW 06:28:47 18° SSW 06:37:51 10° SSE daylight
07 Oct - 08:50:09 10° SSW 08:59:21 16° S 09:10:37 10° SE daylight
07 Oct - 11:14:19 10° SSW 11:32:31 31° SSE 11:50:51 10° E daylight
07 Oct - 13:38:43 10° SW 14:02:24 66° SE 14:19:32 10° ENE daylight
07 Oct - 16:07:21 10° WSW 16:28:12 54° NW 16:40:44 10° NE daylight
07 Oct - 18:46:15 10° WNW 18:51:48 13° NW 18:56:17 10° NNW visible
08 Oct - 02:00:09 10° NNW 02:04:31 39° NE 02:10:40 10° ESE visible
08 Oct - 04:19:56 10° W 04:25:31 33° SSW 04:34:36 10° SE visible
08 Oct - 06:45:33 10° SW 06:51:20 15° S 06:58:51 10° SSE daylight
08 Oct - 09:12:10 10° SSW 09:22:52 17° SSE 09:35:47 10° SE daylight
08 Oct - 11:35:19 10° SSW 11:55:10 37° SSE 12:14:19 10° E daylight
08 Oct - 14:00:02 10° SW 14:24:05 80° SE 14:40:53 10° ENE daylight
08 Oct - 16:30:18 10° WSW 16:49:18 42° NW 17:01:05 10° NNE daylight
09 Oct - 02:20:35 10° NW 02:25:14 73° NE 02:32:17 10° ESE visible
09 Oct - 04:41:50 10° WSW 04:47:10 23° SSW 04:55:11 10° SSE visible
09 Oct - 07:09:06 10° SSW 07:14:10 13° S 07:20:20 10° SSE daylight
09 Oct - 09:33:35 10° SSW 09:46:13 20° SSE 10:01:17 10° ESE daylight
09 Oct - 11:56:14 10° SW 12:17:30 46° SSE 12:37:08 10° E daylight
09 Oct - 14:21:36 10° SW 14:45:35 84° NW 15:01:57 10° NE daylight
09 Oct - 16:53:56 10° W 17:10:29 31° NW 17:21:15 10° NNE daylight
10 Oct - 00:24:58 10° NNE 00:26:11 11° NE 00:27:23 10° NE night (unlit)
10 Oct - 02:41:24 10° WNW 02:46:07 65° SW 02:53:27 10° SE visible
10 Oct - 05:04:21 10° SW 05:09:04 17° SSW 05:15:30 10° SSE visible
10 Oct - 07:32:18 10° SSW 07:37:15 12° S 07:43:05 10° SSE daylight
10 Oct - 09:54:37 10° SSW 10:09:17 25° SSE 10:26:28 10° ESE daylight
10 Oct - 12:17:11 10° SW 12:39:33 56° SE 12:59:25 10° ENE daylight
10 Oct - 14:43:28 10° WSW 15:06:57 69° NW 15:22:47 10° NE daylight
10 Oct - 17:18:25 10° W 17:31:53 23° NW 17:41:12 10° N daylight
